Dati Storici

Data ora Umidita' aria (%) Temperatura aria (°C) Rad globale (W/m²) Gonioanemometro (°) Tacoanemometro (m/s) Pioggia (mm)
22-10-2012 05:20 89.6 % 12.003 0.84 216.548 0.658 0
22-10-2012 05:10 89.9 % 12.14 0.885 343.259 1.212 0
22-10-2012 05:00 90.1 % 12.145 0.796 208.787 1.197 0
22-10-2012 04:50 90.4 % 12.133 0.924 8.69 1.513 0
22-10-2012 04:40 90.5 % 12.094 0.95 17.188 1.155 0
22-10-2012 04:30 90.7 % 12.088 1.014 201.898 1.494 0
22-10-2012 04:20 90.8 % 12.021 0.989 25.382 0.808 0
22-10-2012 04:10 91.2 % 12.082 1.078 284.578 0.994 0
22-10-2012 04:00 91.6 % 12.036 1.258 332.097 0.715 0
22-10-2012 03:50 91.7 % 11.964 1.129 323.531 1.32 0
22-10-2012 03:40 91.1 % 12.11 1.476 330.664 1.085 0
22-10-2012 03:30 90.9 % 12.333 1.271 14.07 0.443 0
22-10-2012 03:20 91.2 % 12.548 1.206 330.783 1.097 0
22-10-2012 03:10 91.4 % 12.692 1.153 1.366 1.203 0
22-10-2012 03:00 91.6 % 12.703 1.089 326.353 0.642 0
22-10-2012 02:50 92.2 % 12.937 1.307 2.327 0.531 0
22-10-2012 02:40 93.4 % 12.898 1.551 220.475 0.328 0
22-10-2012 02:30 94.3 % 12.78 1.755 271.553 0.565 0
22-10-2012 02:20 95.3 % 12.708 1.761 288.103 0.764 0
22-10-2012 02:10 96 % 12.641 1.685 287.808 0.913 0

I dati sono presentati in modo automatico a scopo informativo. In seguito a verifica i dati possono subire modifiche o essere invalidati e non riportati negli archivi definitivi.